Wind_Speed
22 23 22 22 22 23 25 25 25 25 26 27 27 27 27 27 28 29 30 30 31 32 33 34 35 35 36 37 37 37 37 37 38 38 39 40 40 41 41 41 42 42 43 43 43 44 44 44 45 45 45 46 46 46 46 46 46 46 46 48 48 48 48 48 47 47 46 45 44 43 42 42 41 41 41 41 42 42 43 43 44 45 45 45 44 43
22 22 22 22 22 23 25 25 25 25 26 27 27 27 27 28 29 30 30 31 32 32 33 33 34 35 36 36 36 36 37 37 38 38 39 39 40 40 41 41 42 42 43 43 43 44 44 45 45 46 46 46 46 46 46 46 46 47 47 48 49 48 47 45 44 43 43 42 42 42 42 41 40 40 40 41 41 42 42 43 44 44 44 44 43 42
21 21 22 21 21 23 24 25 25 25 26 26 27 27 28 29 30 30 30 31 31 32 32 32 33 34 35 36 36 36 36 37 37 38 38 39 40 40 41 41 42 42 43 43 44 44 45 45 46 46 46 46 46 46 45 46 46 46 47 48 48 46 44 43 41 41 40 41 41 42 41 41 41 40 41 41 41 42 43 44 44 43 43 42 41 40
21 21 22 21 22 23 24 25 25 25 25 26 26 27 28 29 30 30 30 31 31 32 32 32 33 33 34 34 35 35 35 36 36 37 38 39 39 40 41 41 42 43 43 44 44 45 45 45 45 45 45 45 45 45 45 45 45 45 46 47 47 46 44 43 42 41 41 41 41 41 41 41 41 41 40 41 41 43 43 44 43 42 42 41 41 40
22 21 21 21 21 23 24 24 24 24 24 24 25 26 27 28 29 30 30 30 30 31 31 31 32 32 32 33 33 34 34 35 36 37 38 39 40 40 41 42 42 43 43 44 44 44 44 44 44 44 44 44 44 44 44 45 45 45 46 46 46 45 44 43 42 42 41 40 40 40 40 40 40 39 39 40 41 42 42 42 41 41 41 41 41 41
22 21 21 21 21 22 23 23 23 23 23 23 24 25 26 27 28 28 29 29 29 30 30 30 31 31 32 32 32 33 34 35 37 38 38 39 40 40 40 41 41 42 42 42 42 43 43 43 43 43 43 43 43 44 44 45 45 46 47 47 46 44 43 42 41 40 39 39 39 40 41 40 39 38 38 39 40 40 40 40 40 40 40 41 41 41
22 22 21 21 22 23 23 23 23 22 22 22 23 24 25 26 27 27 28 28 29 30 31 31 32 31 31 31 32 32 33 34 35 36 36 37 37 38 38 39 39 40 40 41 41 42 42 42 42 43 43 44 44 44 44 44 44 46 46 45 43 41 40 39 38 38 37 37 38 39 40 40 40 39 38 38 39 39 38 38 38 39 39 40 40 40
22 22 21 21 22 23 23 23 23 22 22 22 23 24 25 25 26 26 27 28 29 30 30 30 30 30 30 30 30 30 30 31 31 32 32 33 34 35 37 37 38 39 40 41 42 42 42 43 43 44 44 45 45 44 43 43 43 44 44 43 41 39 37 37 37 37 37 37 37 37 38 39 39 38 37 37 37 37 36 36 36 38 38 39 39 39
22 22 22 22 22 22 23 23 23 23 22 23 23 24 24 25 25 26 26 27 28 28 28 28 27 27 27 27 27 28 28 29 30 32 33 35 36 37 37 38 40 41 41 42 42 43 43 44 44 44 44 44 43 43 42 41 41 41 41 41 39 38 37 37 37 36 36 36 36 36 36 37 37 36 36 36 36 35 35 35 36 36 37 37 38 38
23 23 23 23 23 23 22 23 23 23 23 23 24 24 24 23 24 24 25 27 28 27 26 24 23 24 25 26 27 28 29 31 33 34 36 37 38 39 39 39 40 40 41 42 42 42 43 42 42 42 42 41 41 40 40 39 39 39 39 39 38 38 37 37 36 36 35 35 35 35 35 35 35 35 35 35 35 34 35 35 35 35 35 35 36 37
22 22 22 23 23 23 23 23 23 22 22 22 23 23 22 21 21 22 23 25 26 25 22 20 21 23 26 28 30 31 32 33 34 35 36 36 37 37 37 37 38 39 39 40 40 40 40 40 39 39 39 39 39 38 38 38 38 38 37 37 37 37 36 36 36 35 35 34 34 34 34 34 35 35 35 35 35 35 35 34 33 34 34 34 35 35
20 20 21 21 22 22 22 22 21 20 20 19 19 19 19 20 21 21 21 22 22 21 21 21 23 26 28 31 32 32 33 33 34 34 35 34 34 33 33 33 33 34 35 35 36 36 37 37 37 37 37 37 37 37 37 37 37 37 36 36 36 36 36 36 36 35 35 34 34 34 34 34 35 35 35 35 35 35 34 33 32 33 33 34 34 35
20 20 19 20 20 20 20 19 19 18 18 17 16 16 18 20 22 22 20 20 20 20 22 25 27 30 31 32 31 31 31 31 32 32 32 31 30 29 29 30 31 32 33 34 35 35 35 35 36 36 36 36 36 36 36 36 36 36 36 36 36 36 36 36 36 35 35 34 34 34 34 34 35 35 36 35 35 34 33 32 32 32 33 34 34 34
19 19 19 19 19 19 19 18 17 17 17 17 17 18 20 23 23 22 19 19 20 22 24 26 29 32 33 32 30 29 28 28 29 29 30 30 29 29 29 30 32 34 34 35 35 35 34 34 34 34 34 34 34 34 34 34 34 35 35 35 36 36 36 36 36 35 35 35 35 35 35 34 34 35 36 36 35 33 31 31 31 32 33 34 34 33
18 18 17 16 17 18 18 18 17 17 17 18 18 19 22 23 22 19 17 19 21 24 25 28 30 32 32 30 28 27 26 26 26 27 29 30 30 30 30 31 33 35 35 35 35 34 34 32 32 32 32 32 32 32 32 33 34 34 35 35 35 36 36 36 36 36 36 36 36 36 34 34 35 37 37 36 34 33 31 31 31 33 34 34 33 32
19 18 16 16 17 18 18 18 17 17 18 19 19 21 21 20 18 17 17 19 22 24 25 25 25 27 29 29 27 25 24 24 24 26 28 31 33 32 31 31 33 35 35 34 34 33 32 31 31 31 31 32 32 32 33 33 34 34 35 35 36 36 36 37 36 36 36 37 37 36 34 34 36 37 37 35 34 32 32 32 32 33 34 34 33 32
19 18 17 16 16 17 18 18 18 18 18 19 19 20 20 18 17 17 18 20 22 24 24 22 14 11 17 25 27 24 23 23 24 25 28 32 34 34 32 30 31 34 35 34 33 32 31 31 30 30 30 30 31 32 33 33 34 34 35 35 36 36 37 37 36 36 36 36 36 35 34 34 35 36 36 35 34 33 33 33 33 33 33 33 32 31
19 19 18 17 17 17 18 17 17 18 19 19 19 19 18 18 17 19 21 23 23 22 22 21 16 9 7 16 24 26 24 23 24 26 29 32 35 34 32 30 30 32 33 33 32 31 30 30 30 30 30 31 31 32 33 34 34 35 35 35 36 36 36 36 36 36 35 35 35 34 35 35 35 36 35 35 34 33 33 33 33 33 33 32 32 31
21 21 19 17 17 17 18 18 19 19 19 18 18 17 17 18 20 22 23 23 23 22 21 18 18 18 17 20 26 29 27 24 25 28 30 32 34 34 32 30 29 31 31 31 31 30 30 30 30 30 30 31 31 32 32 33 33 34 34 35 35 36 36 36 36 35 35 34 34 35 35 35 35 35 35 35 34 34 33 33 32 32 32 32 32 32
22 22 20 18 17 17 19 20 21 20 19 19 18 18 18 20 22 23 24 24 23 21 20 18 18 19 22 25 29 30 28 25 25 27 29 31 33 33 31 29 28 29 30 31 30 29 29 29 29 29 29 29 30 30 31 31 32 33 33 34 35 35 35 35 35 35 35 34 34 34 35 35 35 35 35 35 34 34 33 32 32 32 32 32 32 32
22 21 21 19 17 17 19 21 22 22 21 20 19 19 19 21 22 23 23 22 20 19 19 18 20 22 25 27 29 30 28 26 25 26 26 28 30 31 30 28 27 28 29 30 30 29 28 28 28 28 28 28 29 29 30 31 32 33 33 34 34 35 35 35 35 35 35 34 34 34 34 34 35 35 35 35 34 34 33 33 32 32 32 32 32 32
21 21 21 21 20 19 21 22 24 24 23 21 20 20 21 22 22 22 21 20 18 18 19 21 24 27 28 28 29 29 28 25 23 24 24 22 26 30 30 28 27 27 28 29 29 29 28 28 28 28 28 29 30 30 31 31 32 32 33 33 34 34 35 35 35 34 34 34 33 33 33 33 34 34 34 34 34 34 33 32 32 32 32 32 32 31
24 23 23 23 22 23 23 25 25 25 24 23 22 22 22 23 22 21 20 18 18 19 22 25 27 28 28 28 28 28 26 24 22 22 22 15 20 28 30 28 26 27 28 29 29 29 29 29 29 29 29 30 30 30 31 31 31 32 32 33 33 33 34 34 34 34 34 34 33 33 33 33 33 33 33 33 33 33 32 32 32 32 32 31 31 30
27 26 26 26 27 27 27 27 27 26 25 25 25 26 26 25 23 22 20 19 20 22 24 26 27 27 27 27 27 26 24 22 20 20 20 18 22 27 29 28 26 27 29 30 30 29 30 30 30 30 29 29 29 29 29 30 30 30 31 31 32 32 33 33 33 33 34 34 33 33 32 32 32 32 32 32 32 32 31 31 31 31 31 30 30 29
30 30 30 31 31 31 31 29 28 27 26 26 26 25 23 22 21 20 20 20 21 22 23 23 23 23 25 25 25 24 23 22 20 19 19 20 24 28 29 27 26 27 29 31 31 30 30 30 30 29 28 28 27 27 28 28 29 29 30 30 30 30 31 31 32 32 33 33 32 32 32 31 31 31 30 30 30 30 30 30 30 30 30 29 28 28
32 33 33 33 32 32 31 30 29 27 26 24 22 20 20 20 20 20 19 20 20 20 20 19 18 19 23 23 23 23 23 22 21 20 20 21 23 26 28 27 25 26 29 31 31 30 29 30 30 29 27 26 26 25 26 27 27 28 28 28 28 28 29 30 31 31 32 32 32 32 31 31 31 30 30 29 29 29 29 28 28 28 28 27 27 26
30 31 31 31 32 32 32 31 29 26 23 21 21 21 22 21 20 19 18 19 19 18 17 13 11 14 19 20 21 23 24 23 22 21 22 22 22 23 25 26 25 26 28 29 30 29 29 29 29 28 27 26 26 25 25 25 25 25 25 26 26 27 29 30 31 31 31 31 31 31 31 31 31 31 30 29 29 28 27 27 27 26 26 25 25 24
30 31 31 32 33 33 31 28 25 22 20 20 20 21 20 20 19 18 18 19 18 17 16 12 10 9 10 14 20 24 25 24 23 22 21 21 19 20 23 25 25 25 26 28 30 30 29 28 27 27 27 26 25 24 23 22 23 23 24 25 27 28 30 30 31 30 30 30 30 30 31 31 31 30 30 29 28 27 26 26 25 25 24 24 23 22
31 31 32 32 32 29 26 22 20 19 19 19 19 19 18 18 18 19 19 19 17 16 16 16 15 13 12 17 22 25 25 24 22 21 20 19 19 20 24 24 24 24 24 26 29 30 29 27 25 24 24 23 23 22 21 21 22 23 24 25 27 28 29 29 29 29 29 30 30 30 30 30 30 30 29 28 27 26 25 24 24 23 22 21 20 20
31 32 32 31 28 24 21 19 19 19 19 19 18 18 18 18 19 20 20 19 18 17 17 17 18 17 17 17 16 16 18 21 21 19 18 17 18 20 24 24 24 24 24 21 19 19 22 24 24 22 21 22 22 21 22 22 23 23 24 25 25 25 26 27 27 28 29 29 29 30 30 30 30 29 29 28 26 25 24 23 22 22 21 19 19 18
30 30 29 27 24 21 20 20 20 21 20 20 19 19 19 19 20 20 21 20 19 18 18 17 18 18 17 11 6 5 8 19 23 21 20 18 18 21 23 23 23 24 23 18 10 6 12 16 22 25 22 22 22 23 23 23 22 22 22 23 23 23 24 25 26 27 27 28 28 28 29 29 29 28 28 27 26 25 24 22 21 20 19 18 17 17
28 27 25 23 21 20 20 20 20 20 20 19 19 19 19 19 20 20 21 20 20 19 18 18 18 19 19 14 10 8 9 21 26 24 22 20 20 22 23 22 22 24 24 22 16 11 8 7 17 27 26 24 24 23 23 22 21 21 21 21 21 22 23 24 24 25 25 26 26 27 27 28 28 28 27 27 26 26 24 23 21 19 18 17 16 16
25 23 22 20 20 19 19 19 19 18 18 18 18 19 19 19 20 21 21 21 20 19 19 18 19 19 20 20 18 18 20 25 27 26 23 20 20 21 23 22 23 23 24 24 24 20 14 11 17 26 28 26 25 23 22 22 21 20 20 20 21 22 23 22 22 23 23 24 25 26 26 27 27 27 27 26 26 26 25 24 21 19 17 16 16 16
22 21 20 19 19 19 19 18 18 18 18 18 18 19 19 20 21 21 21 21 20 20 20 19 19 19 19 19 20 22 25 27 27 25 23 21 19 20 23 23 22 23 23 23 24 23 20 21 22 23 23 26 26 24 22 21 21 20 20 20 21 21 22 21 21 22 23 24 24 25 26 26 26 26 26 25 25 24 24 24 23 21 19 17 17 17
20 20 19 19 19 18 18 18 17 17 18 18 19 19 20 20 20 20 20 20 21 21 21 21 21 21 20 19 19 21 25 28 28 27 24 22 21 21 22 22 23 23 22 22 21 20 18 22 24 23 21 23 25 25 23 21 20 20 20 20 20 21 22 22 22 22 23 24 24 25 25 25 25 25 24 24 24 24 24 25 25 25 23 20 19 18
20 19 19 19 19 18 18 18 18 18 18 19 19 19 19 20 20 20 20 21 22 22 23 23 23 23 23 22 22 23 26 29 30 29 27 25 24 23 23 24 25 24 22 22 22 20 17 19 23 25 22 17 17 20 24 22 21 20 20 20 20 21 22 23 23 22 22 23 23 24 24 24 23 23 24 24 24 25 25 25 26 26 25 23 21 19
18 18 18 18 18 18 17 18 18 18 19 19 19 19 19 20 20 21 21 22 22 23 24 24 25 25 25 26 26 27 29 31 32 32 31 30 28 26 24 25 26 25 23 23 23 22 20 16 17 19 19 14 13 16 21 23 22 21 21 21 21 22 23 23 23 22 22 21 22 22 23 23 23 23 24 24 25 24 24 24 24 24 24 24 22 20
17 17 17 18 17 17 17 18 18 19 19 19 19 19 19 20 20 21 21 22 23 24 25 26 26 27 27 27 28 30 31 33 34 34 34 33 31 29 27 27 27 27 25 24 24 24 21 14 12 12 11 15 19 21 23 23 22 22 22 22 22 22 22 23 23 22 21 20 21 22 23 23 23 23 23 23 23 22 22 22 22 22 23 23 22 21
17 17 17 17 16 16 17 18 19 19 19 19 19 19 19 20 20 21 22 22 23 24 25 26 26 27 28 28 29 29 30 31 32 32 33 33 32 30 28 27 27 27 27 25 25 24 23 18 14 11 10 13 18 23 25 23 22 22 22 23 23 23 22 22 21 21 20 20 21 22 23 23 23 22 22 21 21 20 20 20 21 21 22 22 21 21
17 17 17 16 17 17 18 19 20 20 20 19 19 19 19 19 20 21 22 23 23 24 24 25 26 26 26 26 27 27 28 29 30 31 31 31 31 30 28 27 27 27 27 26 25 24 23 22 22 21 21 16 17 21 24 24 23 23 22 20 20 21 23 22 22 22 22 22 22 22 22 22 21 21 20 20 20 20 20 20 20 20 21 21 20 20
17 17 17 17 17 18 19 20 20 19 19 18 18 18 18 19 20 21 22 22 22 23 23 24 24 24 25 25 26 27 28 29 29 29 29 30 30 30 29 28 27 27 26 26 25 25 24 24 24 24 24 23 23 24 25 25 25 24 22 19 19 22 24 24 23 23 22 22 22 21 21 21 20 20 19 19 19 20 21 21 21 21 21 21 20 19
17 17 17 17 17 18 19 19 19 19 18 17 17 17 18 19 19 19 20 20 21 21 22 22 22 23 24 25 26 26 27 27 27 27 27 28 28 28 28 28 28 27 26 25 25 25 25 25 24 24 24 24 23 23 23 25 26 25 22 20 21 22 24 24 23 21 20 21 21 21 20 20 21 20 20 19 20 20 21 21 21 21 20 20 19 18
18 18 18 18 18 19 19 19 18 18 17 17 17 18 19 19 19 19 19 19 20 21 22 22 22 21 22 23 25 26 26 26 26 26 26 26 26 26 27 27 27 26 25 24 24 25 25 26 25 25 26 25 24 23 22 24 26 25 23 21 20 18 15 19 22 22 21 21 21 21 21 21 21 21 20 20 20 20 21 21 21 20 20 20 20 19
19 19 19 19 19 19 19 18 18 17 17 17 18 19 19 19 19 19 19 19 21 22 22 22 21 21 21 22 23 25 26 26 26 25 25 25 24 24 24 25 25 25 25 23 23 23 24 25 25 26 26 25 24 24 23 23 24 24 23 22 20 18 15 18 21 23 23 23 22 22 22 22 21 21 21 20 20 20 19 19 19 19 19 20 20 20
19 19 19 19 19 19 18 19 18 18 18 18 18 19 19 18 18 18 19 20 21 22 22 21 19 17 17 18 21 23 24 26 26 26 25 24 23 23 23 23 24 24 24 23 23 23 23 23 25 26 27 26 25 25 24 23 24 24 24 23 21 20 20 21 21 21 22 22 23 23 23 23 22 21 21 20 19 19 18 18 18 19 19 20 20 21
19 19 19 19 19 19 19 19 19 18 18 18 18 18 18 18 18 19 19 20 20 21 21 20 18 15 15 17 19 21 23 24 25 26 25 25 24 23 23 23 23 23 23 23 24 24 24 24 25 27 27 26 26 25 25 24 23 22 23 22 21 20 20 20 20 20 21 22 23 24 24 23 22 21 19 19 19 19 18 18 17 18 20 20 21 21
20 20 20 20 20 20 20 20 19 19 18 18 18 18 17 17 18 18 19 20 20 20 20 19 18 17 17 18 19 20 21 22 24 25 26 25 25 24 24 23 23 23 23 23 24 24 25 26 27 27 26 24 23 24 26 26 24 22 22 22 21 19 18 19 20 20 20 21 22 23 24 23 21 20 19 19 19 18 18 17 17 18 19 20 21 21
21 21 21 21 21 21 20 20 20 19 18 18 18 18 18 17 17 18 18 19 19 19 18 18 17 17 18 19 20 21 21 21 22 23 24 25 25 24 24 24 24 24 23 24 24 24 25 26 27 27 27 24 22 22 24 25 25 23 22 21 20 19 18 19 20 20 20 21 22 23 23 21 19 19 19 18 18 18 18 17 17 17 18 19 20 21
21 21 22 21 21 21 21 21 20 19 19 18 18 18 18 18 17 17 18 18 19 18 18 17 17 17 17 19 21 22 22 21 22 23 23 24 24 24 24 24 24 25 24 24 23 23 23 23 24 24 24 24 23 23 24 24 24 24 23 21 20 19 18 19 20 19 19 20 22 23 23 21 20 20 19 17 16 17 18 18 17 17 17 18 19 20
22 22 22 22 22 22 22 21 20 19 19 18 18 17 18 18 18 18 18 18 18 18 18 18 17 17 17 19 21 21 21 21 21 22 23 23 23 24 24 24 25 24 24 23 23 22 20 20 20 21 21 21 22 22 23 23 23 23 22 21 20 19 18 18 19 19 18 19 21 22 22 22 21 19 18 16 16 16 17 17 17 17 16 17 17 19
22 22 22 22 23 23 22 22 20 19 18 18 17 17 17 17 18 18 18 18 18 18 19 19 18 18 18 19 21 21 21 21 21 21 22 23 23 23 23 23 23 22 21 19 18 16 14 12 13 16 18 19 18 19 20 21 21 21 20 21 21 20 19 18 18 18 18 18 19 20 21 20 20 18 17 15 14 14 14 14 15 15 15 15 16 18
Wind_Direction
268 272 274 275 276 276 276 276 275 276 277 279 280 280 281 281 281 281 281 281 281 281 281 281 281 281 281 282 282 283 284 284 285 285 284 284 285 285 285 285 284 284 283 283 283 282 282 282 282 282 283 283 283 283 283 282 282 281 280 279 278 277 276 276 277 278 279 280 281 281 280 280 279 279 279 279 279 279 279 279 278 278 277 277 276 277
269 272 274 275 274 274 275 276 275 275 276 278 279 280 281 281 281 282 282 282 281 281 281 281 281 281 281 282 283 283 283 284 284 284 284 284 285 285 285 284 284 283 283 283 282 282 282 282 282 283 283 284 284 284 284 284 283 282 281 281 280 280 280 280 281 281 282 282 282 282 281 281 280 279 279 280 280 280 280 280 279 279 279 278 278 278
271 273 273 274 273 272 274 275 276 276 276 277 278 280 280 281 281 282 283 282 282 281 280 280 280 281 281 282 282 282 283 283 283 283 284 285 285 285 285 284 284 284 283 283 283 283 283 283 284 285 285 285 286 286 285 285 284 284 284 284 284 285 285 284 283 283 281 281 280 281 281 282 281 281 281 281 281 281 281 280 280 280 280 279 278 277
270 272 273 274 273 272 272 274 276 276 276 277 278 279 280 280 280 281 281 282 281 281 281 281 280 281 281 282 282 282 282 283 283 283 284 284 285 286 285 285 285 285 285 285 285 285 285 285 286 286 287 287 286 286 286 285 285 285 285 285 285 285 285 284 283 281 280 280 280 281 281 281 282 282 282 282 282 282 282 281 281 280 279 278 277 276
268 269 271 273 273 273 273 274 276 277 277 278 279 279 279 279 279 280 280 280 280 281 282 282 282 282 282 282 282 282 282 283 284 285 285 285 286 286 286 286 286 286 286 286 286 286 286 286 287 287 286 286 286 286 286 285 285 284 283 282 281 281 281 281 281 281 282 283 284 284 284 283 283 282 281 281 281 280 280 279 279 278 278 277 276 276
267 267 269 270 272 273 275 275 276 277 278 279 279 279 278 278 278 278 278 279 280 282 284 285 285 284 284 283 283 283 283 284 285 285 285 286 286 286 287 287 287 287 287 287 286 286 286 286 286 285 285 285 285 285 286 286 285 283 281 280 279 280 280 281 282 284 286 287 288 289 288 287 286 283 281 280 279 278 278 277 276 276 276 275 275 274
267 267 268 269 270 272 274 275 275 275 276 278 279 279 279 279 279 278 278 279 281 283 285 287 287 286 285 284 283 284 284 284 285 285 285 285 285 286 287 287 287 287 287 287 287 286 286 286 285 285 285 286 286 287 287 286 286 285 284 284 284 284 285 286 287 289 290 290 290 290 290 289 286 284 282 279 279 278 278 276 275 274 274 274 273 273
267 268 268 268 269 271 273 273 272 272 273 274 277 279 281 281 281 281 280 281 282 283 286 287 287 286 285 285 284 285 284 284 285 285 286 287 287 288 288 288 288 288 288 288 288 287 287 287 287 287 287 288 288 288 288 287 287 288 289 290 291 291 291 291 292 292 292 291 290 289 288 287 286 285 283 281 280 280 279 277 275 274 273 273 273 273
263 266 267 266 267 270 272 273 272 271 271 270 272 274 278 281 283 284 285 285 285 286 286 286 286 285 285 285 286 287 287 287 288 289 290 290 290 289 289 289 289 289 289 289 288 288 288 288 288 288 288 288 288 288 287 288 288 289 290 291 292 292 292 292 292 291 290 290 289 288 287 287 286 286 285 283 281 280 278 276 275 273 273 272 273 274
259 262 265 265 265 266 268 271 272 272 270 268 267 268 272 277 282 285 287 288 289 289 287 285 284 285 287 289 290 291 292 292 291 290 290 289 289 289 289 289 289 289 289 289 288 288 288 287 287 287 286 286 286 286 286 286 287 287 288 289 289 289 290 289 289 289 289 288 288 287 287 286 286 285 284 282 280 279 277 275 274 274 273 272 273 274
258 260 263 264 265 264 264 266 270 271 270 268 267 267 269 273 279 284 287 290 291 291 288 284 284 287 291 294 295 296 295 294 293 291 290 289 288 288 289 289 289 288 288 288 288 287 287 286 286 285 285 285 284 284 285 285 286 286 286 286 287 287 287 287 288 288 288 288 288 287 286 285 284 284 283 282 281 279 278 276 274 273 272 272 272 273
256 259 260 262 263 263 263 265 266 267 267 267 269 272 274 277 281 285 286 288 290 290 290 290 291 292 294 296 297 297 296 294 292 291 290 290 289 289 290 290 289 289 289 289 288 288 287 286 286 285 285 284 284 284 284 284 285 285 285 285 286 286 286 287 287 287 287 287 287 286 285 284 283 283 283 283 282 281 279 275 273 271 271 271 271 271
255 256 258 259 260 261 262 264 264 264 264 266 271 277 283 287 289 289 285 284 286 289 293 296 297 296 296 296 295 295 294 292 290 289 289 290 290 291 292 293 293 292 292 291 290 289 288 287 287 286 285 284 284 284 284 284 284 284 284 285 285 285 286 286 286 285 285 285 284 283 282 282 282 282 283 282 282 281 279 274 271 270 270 270 270 270
253 254 255 256 257 258 259 259 259 261 265 270 275 281 286 290 290 288 285 283 286 291 296 298 298 298 297 296 294 293 291 290 290 290 290 290 291 294 296 296 295 294 294 293 291 289 289 288 287 285 284 284 283 283 283 283 283 283 283 284 284 284 285 284 284 284 283 282 281 281 281 281 281 281 281 281 281 281 279 275 272 270 270 270 270 270
250 251 252 253 255 256 255 255 257 263 270 277 282 285 288 288 287 284 284 286 291 297 300 300 298 297 296 295 295 294 294 293 293 294 293 293 294 296 298 297 296 295 294 292 291 290 289 288 287 285 285 284 283 282 283 283 283 283 283 283 283 284 284 284 284 284 283 282 282 282 283 282 281 281 281 282 282 281 279 276 273 272 271 271 271 271
247 248 248 249 251 251 252 254 261 270 278 283 286 287 286 284 282 282 285 291 297 301 302 300 299 297 296 296 297 298 299 300 299 298 297 296 297 298 299 298 296 294 293 292 291 290 290 289 287 286 285 284 284 284 284 283 283 283 283 283 284 284 285 285 285 285 285 284 285 285 285 283 282 281 282 282 282 281 278 275 274 273 272 272 273 273
246 246 246 246 247 249 252 259 268 276 282 285 285 283 280 277 278 284 290 296 299 299 298 296 295 294 297 299 300 302 305 306 305 302 300 298 298 299 300 298 295 293 293 291 290 290 290 289 287 286 285 284 284 285 285 285 285 285 285 285 286 286 287 287 287 286 286 286 286 286 285 283 282 281 281 281 281 279 276 275 273 273 273 273 274 274
245 243 242 242 245 251 258 266 274 279 283 284 283 279 275 275 280 287 293 295 295 293 291 290 288 287 293 299 301 304 308 310 309 305 302 299 299 299 300 298 294 292 291 290 290 289 289 288 287 286 286 286 286 286 286 287 287 287 288 288 288 288 288 288 288 288 287 286 285 285 284 282 281 280 280 280 279 278 276 275 274 273 274 275 275 276
244 242 239 240 247 256 265 271 276 280 281 280 279 278 278 281 286 289 291 290 287 284 283 284 285 288 291 294 298 302 308 311 308 304 301 299 298 299 300 299 295 292 290 290 290 290 289 288 287 287 287 287 287 288 288 288 289 289 289 289 289 289 290 290 289 289 288 287 285 284 283 282 281 280 279 279 278 278 278 277 277 276 276 276 277 277
243 241 239 244 254 264 270 273 275 276 276 276 276 278 280 284 287 288 286 284 281 279 279 281 284 289 293 295 298 301 306 310 308 303 300 298 297 298 300 299 296 293 291 291 291 291 290 290 289 289 288 288 289 289 289 290 290 290 290 291 291 291 291 291 291 290 289 287 286 284 283 282 280 279 279 278 277 277 278 277 276 276 277 277 277 277
242 244 247 254 263 270 273 274 273 273 272 272 272 274 277 281 283 282 281 279 279 280 283 286 289 292 295 296 298 300 304 306 305 301 299 297 297 297 299 299 297 294 293 292 293 293 292 291 291 291 290 290 290 291 291 291 291 292 292 292 293 293 292 292 292 291 290 288 287 285 284 282 281 280 279 278 278 277 276 276 276 276 276 276 276 276
249 256 261 265 268 270 271 272 271 270 267 265 266 268 272 274 276 277 278 279 281 286 290 292 293 294 295 295 296 298 301 302 300 298 298 297 295 296 299 300 299 295 293 293 294 295 294 293 292 292 291 292 292 292 292 292 292 293 293 293 293 293 293 293 293 292 291 290 288 286 284 282 281 279 279 278 277 277 276 275 275 274 274 274 274 274
260 265 268 270 269 268 267 267 267 265 262 260 261 263 265 267 269 271 274 279 286 292 295 295 294 294 294 293 294 296 298 299 298 297 296 293 292 295 299 301 299 295 293 293 295 296 295 294 293 292 292 292 291 292 292 292 292 292 293 293 293 294 294 293 293 292 291 289 287 286 284 282 280 278 278 277 276 275 274 274 273 273 273 272 272 272
264 266 268 269 268 266 264 262 261 259 258 258 260 262 263 265 267 270 276 283 290 295 296 297 296 295 294 295 295 296 297 298 298 297 295 292 292 294 298 300 299 295 293 294 295 296 295 294 293 292 292 291 291 291 291 292 292 292 293 293 294 294 293 293 292 292 291 290 288 287 285 282 280 278 277 276 275 274 273 272 272 272 272 271 271 271
263 264 265 266 266 264 262 259 257 256 256 257 260 263 267 271 275 279 284 289 293 296 298 298 297 296 296 297 298 297 298 299 300 298 295 293 292 293 296 298 297 295 294 295 295 296 295 293 293 292 292 291 290 291 291 292 292 293 293 293 293 293 293 294 294 294 295 295 294 292 290 288 286 283 281 279 277 275 274 273 272 271 271 271 271 271
259 261 262 263 263 261 259 257 255 253 254 256 261 269 277 283 287 289 289 291 293 297 299 297 295 294 296 298 298 298 299 301 301 298 295 293 292 293 295 297 297 295 295 296 297 296 295 294 293 293 293 292 292 291 291 292 292 292 292 293 293 295 296 297 298 298 298 297 296 295 293 292 290 287 285 282 280 278 276 274 273 272 272 272 272 272
254 256 257 258 258 258 257 254 252 251 255 262 272 280 286 290 291 291 289 289 292 295 296 294 293 294 297 297 297 298 300 302 301 298 295 293 290 291 295 298 299 298 297 297 297 297 296 294 294 294 294 293 293 292 291 291 291 292 293 294 296 297 298 298 298 298 297 296 295 294 293 292 290 288 286 284 282 280 278 276 274 273 272 272 272 272
252 252 253 255 257 258 258 256 256 258 265 273 279 282 285 287 287 285 283 285 289 291 290 289 289 292 295 296 297 298 300 300 299 298 297 294 290 290 295 299 301 301 300 300 300 298 296 294 293 294 294 294 293 293 293 293 293 293 294 295 296 296 296 297 297 297 297 296 295 294 293 292 291 290 289 287 285 283 280 277 275 274 273 273 272 272
252 253 255 256 259 261 262 262 264 268 273 277 278 279 279 279 277 276 277 281 285 286 286 286 288 289 292 295 297 298 298 298 298 299 301 297 292 292 296 300 302 302 303 304 303 301 298 295 294 294 294 295 296 296 296 296 295 294 294 294 294 294 294 295 296 297 297 297 296 295 294 294 293 293 293 292 290 287 283 280 278 276 275 273 273 273
253 254 255 256 258 260 262 264 266 268 271 272 273 272 272 271 270 271 274 278 280 281 281 283 285 288 291 295 297 298 297 298 300 303 305 301 295 295 299 301 301 302 305 306 305 303 300 299 299 298 298 299 299 299 299 298 296 294 293 292 292 291 292 294 296 298 299 299 298 298 297 297 297 297 297 296 294 291 287 284 280 277 274 272 272 272
250 250 250 251 252 254 256 259 262 263 265 266 266 267 267 267 267 269 271 273 273 273 275 279 283 287 290 294 296 295 296 298 301 305 305 300 294 294 298 300 300 301 303 303 303 302 303 303 303 303 303 302 301 300 300 298 296 294 292 292 291 290 292 295 297 299 300 301 301 300 300 301 301 302 302 302 300 298 293 289 283 278 273 269 268 269
244 243 243 245 246 249 251 254 257 258 260 262 263 265 266 268 268 268 268 268 267 268 270 275 280 284 286 286 284 283 288 295 298 301 302 297 293 294 297 297 298 299 300 298 294 292 297 303 304 304 304 303 302 300 300 299 297 295 294 293 292 291 292 295 297 298 300 302 303 303 304 304 305 306 306 307 306 304 301 296 290 282 274 267 263 263
238 238 239 241 243 246 248 250 253 255 258 261 263 266 268 270 269 267 266 265 264 265 268 273 278 282 284 284 283 284 286 290 295 298 299 296 293 293 296 296 296 297 299 297 294 290 288 288 297 300 302 302 301 300 300 300 298 296 295 293 292 292 293 295 296 298 299 301 303 304 305 306 306 307 307 307 307 307 305 303 298 290 280 269 262 258
234 235 237 239 242 245 247 250 252 254 257 260 264 266 269 270 268 266 264 264 264 266 269 271 274 278 282 284 285 285 287 290 293 296 298 295 292 291 294 295 295 297 298 299 297 294 290 289 292 297 300 301 301 300 300 299 298 297 295 293 292 292 293 294 295 297 298 300 302 303 304 305 306 306 306 306 306 305 305 304 302 297 289 277 266 258
233 234 236 239 242 245 247 249 251 254 256 260 263 265 267 268 267 266 266 267 268 269 270 270 272 274 276 280 283 285 287 290 293 295 295 293 290 290 292 292 294 296 297 298 298 297 294 293 293 295 298 300 300 300 300 299 298 297 296 294 292 291 292 293 294 295 297 298 299 301 302 303 304 305 305 304 304 303 303 302 302 300 296 288 276 263
231 232 235 238 241 244 247 249 251 253 255 259 262 265 267 268 268 269 269 270 271 272 272 273 273 274 274 275 277 280 284 288 291 293 293 290 289 288 288 289 291 293 294 295 296 296 295 295 296 297 297 298 299 301 301 301 300 299 297 295 294 292 292 292 292 293 294 295 297 299 301 302 304 304 305 305 305 305 304 303 302 301 300 296 287 274
226 230 234 237 240 244 247 249 251 252 255 258 262 265 266 268 269 270 271 272 274 275 276 277 277 277 277 276 276 277 280 285 288 290 291 289 287 284 283 285 287 288 288 290 292 295 295 296 297 298 298 296 296 300 302 303 303 301 298 297 295 294 292 292 291 291 291 292 294 297 300 302 303 304 305 306 307 307 306 305 304 303 302 301 296 286
224 228 233 237 241 244 247 249 250 252 254 257 260 263 265 268 270 272 273 274 276 277 278 280 281 281 282 282 281 281 281 284 287 288 289 289 286 282 280 282 284 284 283 284 287 290 293 293 296 297 296 297 297 298 300 302 302 301 299 298 296 294 293 293 293 292 291 292 294 297 299 300 302 303 304 304 305 305 305 305 304 304 303 303 301 295
224 230 235 240 243 246 248 249 250 252 254 257 260 262 266 268 271 273 275 276 277 278 279 281 282 283 285 285 285 285 285 286 287 289 290 289 287 283 280 279 281 282 281 280 281 284 286 288 290 292 295 298 299 299 300 300 300 299 300 300 298 296 295 295 296 295 294 294 295 296 297 299 300 301 301 301 301 301 301 302 303 303 303 303 303 301
227 233 239 244 246 248 249 250 252 254 255 257 260 263 266 269 272 274 276 276 277 278 280 281 283 284 285 286 287 288 288 289 289 290 291 291 289 286 282 278 278 280 281 281 280 280 281 284 286 288 291 293 296 298 299 299 299 299 300 300 299 298 298 298 298 297 296 295 294 294 295 297 299 300 301 300 299 299 299 298 298 298 298 298 299 300
231 238 243 247 249 250 250 252 253 254 255 257 259 263 266 270 272 274 276 277 277 278 280 282 283 285 287 287 288 290 291 291 292 292 293 293 292 290 286 281 278 278 280 280 280 280 280 282 285 287 289 291 293 295 296 297 298 299 298 296 295 296 297 297 296 296 295 294 293 293 294 297 299 300 301 302 302 301 300 297 293 291 291 291 292 293
236 241 244 247 248 249 250 251 252 253 254 256 260 264 267 269 271 272 274 275 277 278 280 282 284 286 288 290 292 293 293 293 294 295 295 295 295 293 290 285 282 280 279 279 280 280 280 282 284 286 288 291 293 294 295 296 297 297 296 294 293 295 296 295 294 294 294 293 293 293 293 295 297 298 299 300 301 301 301 299 296 292 289 287 286 287
239 242 245 246 248 249 250 250 250 251 253 256 259 262 265 266 267 269 271 273 275 277 279 281 282 285 288 291 294 295 296 296 297 298 298 298 297 295 293 290 287 284 280 279 280 282 282 285 285 285 287 289 291 291 292 295 297 297 295 293 293 293 293 293 294 295 294 293 293 293 293 293 294 294 295 295 296 297 298 298 297 295 292 289 288 286
239 242 244 246 247 247 247 247 248 249 252 255 257 260 263 264 266 267 269 271 273 275 277 279 281 283 285 288 291 295 299 300 301 301 300 299 298 297 295 293 291 289 285 280 280 283 285 287 286 286 287 288 289 290 290 292 294 296 295 295 292 288 285 288 292 294 294 293 292 292 292 292 293 293 293 292 292 293 293 294 294 294 293 291 290 289
240 242 243 243 243 243 243 244 246 248 252 254 255 257 261 264 266 267 267 269 272 274 275 277 278 280 282 285 290 296 300 303 304 304 303 302 301 299 297 295 293 292 290 286 283 282 284 286 288 289 290 290 289 288 288 290 292 294 295 296 294 290 285 286 287 289 290 290 291 291 292 293 294 294 293 292 291 290 290 289 290 290 290 291 290 289
240 241 240 240 240 240 241 243 245 247 248 250 252 256 260 264 266 267 267 268 270 272 273 274 273 274 277 283 289 295 299 302 304 305 305 305 304 303 301 299 297 296 293 291 289 286 283 284 286 289 292 292 290 288 287 288 290 292 294 296 296 293 290 288 286 285 285 286 288 290 292 293 294 293 291 290 290 290 289 287 286 286 288 288 288 287
238 238 237 237 238 239 240 242 243 245 246 249 252 256 260 264 267 268 268 268 269 270 271 271 269 269 273 279 286 291 295 298 300 303 305 305 306 305 304 303 301 299 296 294 293 290 287 285 285 286 288 289 289 289 289 289 289 290 291 293 294 292 289 287 286 285 283 282 283 286 290 292 292 291 290 290 290 290 289 288 286 286 286 287 286 286
236 236 236 236 236 238 239 240 241 242 244 248 252 256 260 263 266 267 268 268 268 268 268 267 267 268 272 277 282 286 289 292 295 298 301 303 304 305 306 306 305 303 300 298 295 292 289 287 285 283 282 282 282 285 287 288 288 288 288 289 289 288 286 285 285 284 282 280 280 282 285 286 287 288 290 290 290 290 290 290 289 287 287 287 287 286
235 235 235 235 235 236 237 237 238 239 241 246 251 256 260 262 264 265 267 268 267 267 265 264 265 268 273 277 281 284 286 289 291 294 297 300 302 305 306 307 307 307 305 303 300 297 294 291 288 284 279 276 275 278 282 285 286 287 287 287 287 286 285 284 284 283 280 278 278 279 280 279 281 284 286 287 288 288 290 290 289 288 287 286 286 286
234 234 233 233 233 234 235 235 235 236 240 244 250 255 259 262 264 264 266 267 267 265 263 262 264 268 273 277 280 283 285 287 290 292 294 298 301 304 306 307 309 309 309 308 307 306 304 301 297 293 287 280 276 276 280 283 287 290 290 290 290 290 288 286 285 283 279 276 276 276 277 276 277 279 280 282 284 286 288 289 288 288 287 288 288 288
233 233 232 232 232 233 233 234 234 235 238 243 249 254 259 262 264 265 266 266 265 263 263 262 263 267 271 276 279 281 283 285 287 289 292 296 300 303 304 306 308 309 310 311 311 311 310 308 304 302 298 293 287 283 283 287 292 295 296 296 297 297 295 291 287 283 278 274 272 273 273 274 274 274 275 277 281 285 287 288 288 289 290 291 293 294
Height
769 768 768 768 768 766 764 764 764 763 762 761 761 760 760 759 758 757 756 755 754 753 752 750 748 747 745 744 743 742 741 740 738 737 735 734 733 731 730 728 727 725 723 722 721 719 718 716 714 713 711 709 708 707 705 704 702 701 699 698 696 695 694 693 692 691 690 689 688 687 686 686 685 684 683 682 680 679 678 678 677 677 675 674 673 673
767 767 766 766 766 764 762 761 762 762 761 759 759 758 758 757 755 754 753 753 752 750 749 747 746 744 743 741 740 739 738 737 735 734 732 731 729 728 726 725 723 722 720 718 717 715 714 712 711 709 707 706 704 703 701 700 698 697 695 693 691 690 690 689 688 687 687 686 684 683 682 682 681 680 679 678 677 676 675 674 674 673 671 670 669 668
766 765 764 764 763 762 760 759 759 759 759 758 757 756 755 754 753 752 751 750 748 748 746 745 743 741 740 738 737 736 734 733 732 731 729 728 726 725 723 721 720 718 717 715 713 712 710 708 707 705 704 702 701 699 698 696 695 693 692 689 688 687 687 685 684 683 683 682 681 680 678 678 677 676 675 674 673 673 672 671 670 668 667 665 664 664
764 763 762 761 761 760 758 758 757 757 757 756 755 754 753 752 751 749 748 747 746 744 743 742 740 739 737 735 733 732 731 730 729 727 726 724 723 721 719 718 716 715 713 712 710 708 707 705 703 702 700 699 698 696 694 693 692 690 688 686 685 683 683 682 681 680 679 678 677 676 676 674 673 673 672 670 669 668 668 666 665 664 662 661 661 661
762 761 760 760 759 758 756 756 755 755 754 753 753 752 751 750 748 747 746 745 743 742 740 739 738 736 734 733 731 729 728 727 726 724 723 721 719 718 716 715 713 712 710 708 707 705 703 702 700 699 698 696 694 693 691 689 688 686 684 683 681 680 680 679 678 677 676 675 673 673 672 671 670 670 669 668 667 665 664 663 661 660 659 658 657 657
759 759 758 758 757 755 754 754 753 753 752 751 750 749 748 747 746 744 743 742 741 739 738 736 735 733 732 730 728 727 726 724 723 721 719 718 716 715 713 712 710 708 707 705 703 702 700 699 697 696 694 693 691 689 688 686 684 682 680 679 678 677 677 676 674 673 673 671 670 668 668 667 667 666 665 665 664 663 661 660 658 657 656 655 654 653
757 757 757 756 755 753 753 752 751 751 750 749 748 747 746 744 743 742 741 739 738 737 735 733 732 731 729 728 726 725 723 722 720 718 716 715 713 711 710 708 707 705 703 702 700 698 697 695 694 692 691 689 687 686 684 683 681 679 677 675 674 673 673 672 670 669 669 668 667 666 665 664 664 663 662 661 660 658 657 656 655 654 653 651 650 649
755 754 754 754 753 751 750 749 748 748 748 747 746 744 743 742 740 739 738 737 736 734 733 731 729 728 727 725 724 723 721 719 717 715 713 712 710 708 707 705 703 702 700 698 697 695 693 692 690 689 687 686 684 683 681 679 678 676 674 672 671 670 669 668 667 667 666 665 664 663 663 661 660 659 658 657 656 654 654 653 652 651 649 648 646 645
753 753 752 752 751 750 748 746 746 746 746 745 744 742 740 738 737 736 735 734 733 732 731 728 727 725 724 723 722 720 719 717 715 713 711 709 707 705 704 702 700 698 697 695 693 692 690 689 687 686 684 683 681 679 678 676 675 673 672 670 668 668 667 666 665 664 664 663 662 661 660 658 657 655 654 653 652 651 651 650 649 648 646 644 643 641
752 751 750 749 748 748 746 744 743 743 743 743 741 740 738 737 735 734 732 731 730 729 728 727 725 723 722 721 720 719 717 715 713 711 709 707 705 703 701 699 697 695 693 692 690 689 687 686 684 683 681 680 678 677 675 674 673 671 669 668 667 666 665 664 663 663 662 661 659 658 657 656 654 653 652 650 649 648 648 647 645 644 643 642 640 638
749 749 748 746 745 744 743 742 740 740 740 740 738 738 737 736 734 733 730 728 726 726 726 725 724 722 720 718 717 716 715 712 709 707 706 704 702 700 698 697 695 693 690 689 687 685 684 683 681 680 678 677 675 674 673 671 670 669 668 666 665 664 663 662 661 660 659 658 657 656 654 653 652 650 649 647 646 644 643 643 642 641 640 639 638 636
747 746 745 744 743 741 740 739 738 738 738 737 736 735 734 733 733 731 729 726 725 724 723 723 722 720 719 717 715 713 712 710 707 704 702 700 699 698 696 694 692 689 688 686 683 682 680 679 678 676 675 673 672 671 670 668 667 666 665 664 663 662 661 660 659 658 657 656 655 653 652 651 649 648 646 644 643 641 640 639 639 638 638 636 635 634
744 744 743 741 740 739 738 737 736 736 735 735 734 732 731 730 730 729 728 725 724 723 722 720 718 717 716 716 714 712 709 707 704 701 699 697 696 695 694 691 689 687 685 683 680 678 677 676 675 673 672 671 669 668 667 666 665 664 663 662 660 659 658 658 657 656 654 653 652 651 649 648 646 644 642 641 640 638 637 636 636 635 635 634 633 632
742 741 740 738 737 736 735 735 734 733 732 732 731 730 729 728 728 727 726 724 723 722 721 719 716 714 713 712 712 710 708 705 702 699 696 695 694 693 692 690 687 684 683 680 678 675 674 673 672 670 668 668 667 666 665 663 663 661 660 659 658 657 656 655 654 653 652 650 648 647 645 644 643 641 639 638 637 635 633 633 632 632 632 631 630 629
739 738 737 735 734 733 732 732 731 730 729 729 728 728 728 727 726 725 724 723 721 720 719 717 714 712 710 709 708 707 705 703 700 697 694 692 691 692 691 688 685 682 680 678 675 673 672 671 669 667 666 665 664 663 662 661 660 658 657 656 655 654 653 652 651 650 648 647 644 643 642 641 639 638 636 634 633 631 630 629 629 628 628 627 627 627
736 735 734 732 730 729 729 729 728 727 727 727 727 727 726 725 724 724 723 721 719 718 718 715 712 708 706 705 705 705 703 701 698 696 693 689 688 689 690 687 683 679 677 675 673 671 669 668 667 665 664 663 662 661 660 658 657 656 655 653 652 651 650 648 648 646 645 643 641 639 638 638 636 633 631 630 629 628 627 626 626 625 624 623 623 623
733 732 730 728 727 726 726 726 726 725 725 725 725 725 724 723 723 722 721 720 718 717 716 714 712 707 702 700 701 702 702 700 697 694 692 688 685 685 687 685 682 677 674 673 671 669 668 666 664 663 662 660 659 658 657 656 655 653 652 651 649 648 647 646 644 643 642 640 638 637 636 634 633 630 628 626 625 624 624 623 623 622 620 619 619 619
729 728 727 725 724 723 723 723 723 723 723 723 723 723 722 722 721 720 719 718 718 716 714 712 710 707 703 699 698 698 701 699 697 693 690 686 683 682 683 683 680 675 672 670 668 667 666 664 662 661 659 658 657 656 655 653 652 651 649 648 647 645 644 643 642 640 639 638 636 635 633 631 629 627 625 623 623 622 621 620 619 618 617 616 615 615
725 724 723 722 721 721 721 721 721 721 722 722 721 721 720 719 719 718 718 717 716 714 712 710 708 705 703 700 697 697 699 698 696 693 689 684 681 679 680 680 677 673 670 667 666 664 663 661 660 658 658 656 655 654 653 651 650 648 647 646 644 643 641 640 638 637 636 634 633 632 630 628 626 624 623 621 620 619 618 617 616 615 615 613 613 612
721 720 719 719 718 718 718 718 718 719 720 720 720 719 718 717 717 716 715 714 713 711 710 708 706 703 702 699 697 696 697 697 695 692 688 683 679 677 678 677 675 671 667 665 663 663 661 659 658 656 655 654 653 652 650 649 648 646 645 643 642 640 638 637 636 634 633 631 630 628 627 625 623 622 620 619 618 617 615 615 614 614 613 612 610 609
717 716 716 716 716 716 715 715 716 717 718 718 718 717 716 715 714 713 712 711 710 708 708 706 704 702 700 698 696 695 696 696 694 691 687 682 678 675 675 675 673 669 665 663 661 660 659 657 655 654 653 652 651 650 648 647 645 644 643 641 639 638 636 634 633 631 630 628 627 625 624 622 620 619 618 616 616 615 614 613 613 612 611 610 609 608
714 713 713 714 714 713 713 713 714 715 716 716 716 715 714 713 712 710 709 708 708 706 705 704 702 701 699 698 695 694 695 695 693 691 687 682 676 672 673 673 671 668 663 661 659 658 657 655 654 652 651 650 649 648 646 645 643 642 640 638 637 635 633 632 630 628 627 625 624 622 621 619 618 616 615 614 613 613 612 612 611 611 610 609 608 606
711 710 710 711 711 711 711 712 712 713 713 713 713 712 711 710 709 708 707 706 706 704 703 702 700 699 698 696 694 693 693 693 692 690 687 682 675 670 671 671 670 666 662 659 658 656 655 653 652 650 649 648 647 646 644 643 641 640 638 636 635 633 631 629 627 625 624 622 621 619 618 616 615 613 613 612 611 611 610 610 609 609 608 607 606 604
708 708 708 708 709 709 710 710 710 710 710 710 709 709 708 708 707 706 705 705 704 703 702 700 698 697 695 694 693 692 691 691 691 689 686 681 675 671 669 670 668 664 660 658 656 655 653 651 649 648 647 646 645 643 642 641 639 638 636 634 633 631 629 627 625 623 621 619 617 615 614 613 611 610 610 609 609 608 608 608 607 607 606 605 604 603
706 706 706 707 707 707 707 707 707 707 707 707 707 707 706 706 705 705 704 703 703 702 701 699 697 695 693 692 691 689 689 689 689 688 685 681 675 670 668 669 667 663 658 655 654 653 651 648 646 645 644 643 642 641 640 639 637 636 634 632 630 628 627 624 623 620 618 616 614 613 611 609 608 607 607 607 606 606 605 605 605 604 603 603 602 600
705 705 705 705 705 705 705 705 705 705 705 705 705 705 705 704 703 703 702 701 701 701 700 698 696 693 692 690 689 687 686 687 687 686 684 680 674 669 667 667 666 663 658 654 652 651 649 646 644 643 642 641 640 639 638 637 635 633 632 630 628 627 625 623 620 618 616 614 612 610 608 607 606 605 604 604 604 603 603 603 602 602 601 600 599 598
704 704 704 703 703 703 703 702 703 703 703 703 703 703 703 703 702 701 700 700 700 700 699 697 695 692 690 689 687 685 684 684 684 684 683 680 675 669 666 665 664 662 657 653 650 649 647 644 642 640 639 638 638 637 636 634 633 631 630 628 627 625 623 621 618 616 614 612 610 608 606 604 603 602 602 601 601 600 600 600 599 599 598 598 597 596
702 702 702 701 701 700 700 700 701 701 701 701 701 702 702 702 701 699 698 698 699 699 698 696 694 692 689 687 685 683 683 683 682 681 680 678 674 669 666 665 663 661 657 652 648 645 645 643 641 639 638 636 635 634 633 632 631 629 628 626 625 623 621 619 617 614 612 610 608 605 603 601 600 599 598 598 598 598 597 597 596 596 596 595 594 593
699 699 699 698 698 698 698 698 698 698 699 699 699 700 700 700 699 698 697 697 698 697 696 695 693 691 689 686 683 682 681 680 680 679 679 677 673 668 666 665 663 661 658 653 646 642 640 639 639 638 636 634 633 633 631 630 629 628 626 624 623 621 619 617 615 613 610 608 605 603 601 599 597 596 595 595 595 594 593 593 593 593 593 593 592 591
696 696 696 696 696 696 696 696 696 696 697 698 698 698 698 698 698 697 696 696 696 695 694 693 692 690 688 686 683 680 678 677 678 678 678 675 672 668 666 664 662 660 658 654 648 640 634 634 635 636 635 633 632 631 630 628 627 625 623 622 620 618 617 615 613 611 609 606 603 601 598 596 594 593 592 592 591 591 590 590 590 590 590 590 590 589
693 693 693 693 694 694 694 694 694 695 695 696 696 696 696 696 695 695 694 694 694 694 693 691 690 689 688 686 683 680 676 674 675 677 677 674 671 667 665 663 661 659 658 657 652 644 635 629 629 632 633 632 631 629 628 627 625 623 622 620 618 616 615 613 612 610 607 605 602 599 597 594 592 590 589 589 588 588 587 587 587 588 588 588 588 587
691 691 691 691 692 692 692 693 693 693 693 693 693 693 694 693 693 693 693 693 692 692 691 690 689 688 687 686 684 680 676 673 673 675 675 673 669 666 664 663 660 658 657 656 654 649 642 632 628 627 630 630 629 628 627 625 624 622 620 618 616 614 613 612 611 609 606 604 601 598 595 593 590 588 587 586 586 584 583 583 583 584 585 586 586 586
688 688 689 689 690 690 690 690 691 691 691 691 691 691 691 691 691 691 690 690 690 689 689 688 687 686 685 684 682 679 676 673 673 673 673 672 669 665 663 662 659 657 654 653 652 649 645 638 631 628 627 627 627 626 625 623 622 621 619 617 615 613 611 610 609 608 606 603 600 597 594 591 589 587 585 584 583 582 581 580 580 581 582 583 584 584
686 686 687 687 688 688 688 688 688 689 689 689 689 689 689 689 689 688 688 688 688 687 687 686 686 684 683 682 679 677 674 672 672 672 672 671 668 665 662 660 658 656 653 651 648 646 643 638 634 630 626 624 623 624 623 622 620 619 617 616 613 611 610 609 608 607 605 603 600 597 593 591 588 585 584 583 582 580 579 578 577 577 578 579 581 582
684 684 685 685 686 686 686 686 686 687 687 687 687 687 687 687 686 686 686 686 685 685 685 684 684 683 682 680 678 675 672 670 669 670 670 669 667 664 661 659 657 655 653 649 647 644 640 636 633 631 627 623 621 620 621 620 619 618 616 614 612 610 608 607 607 605 604 602 599 596 593 590 588 585 583 581 580 578 577 575 574 573 573 575 576 577
682 682 683 683 683 683 684 684 684 684 685 685 685 685 685 685 684 684 684 683 683 683 682 682 681 681 680 679 677 674 671 668 668 668 668 667 666 663 661 658 656 655 653 649 646 643 639 635 631 629 627 623 620 618 618 618 617 616 614 613 611 609 607 605 605 604 603 601 598 596 593 590 588 585 583 580 579 577 575 574 572 570 569 570 571 572
679 680 680 681 681 681 681 682 682 682 683 683 683 683 683 683 683 682 682 682 681 681 680 679 679 678 677 676 675 673 670 668 666 665 665 664 664 662 660 657 654 653 652 649 646 642 639 634 630 626 624 623 620 618 616 615 615 614 613 611 609 607 605 603 602 602 601 599 598 595 593 591 588 586 583 581 578 577 574 573 571 569 567 567 566 567
677 678 678 678 679 679 679 679 680 680 680 681 681 681 681 681 680 680 680 679 679 678 678 677 676 675 674 673 672 670 668 666 664 663 662 662 661 660 658 655 653 651 650 648 646 643 639 635 631 626 622 620 618 617 616 615 613 612 610 609 607 605 603 601 600 599 598 598 596 594 593 591 589 587 584 581 579 577 574 572 570 568 567 565 564 564
675 675 675 676 676 677 677 678 678 678 678 678 679 679 679 679 678 678 678 677 677 676 676 675 673 673 671 670 669 668 666 664 663 661 660 659 658 657 656 653 651 649 648 646 645 642 639 636 632 628 623 619 616 614 614 614 613 611 609 607 605 603 601 599 598 597 596 595 594 593 591 590 588 587 585 582 580 578 575 573 571 569 568 566 564 563
672 673 673 673 674 675 675 676 676 676 677 677 677 677 677 677 676 676 676 675 675 674 673 673 672 670 669 668 667 665 664 662 661 660 658 657 656 655 653 652 649 647 645 643 642 641 638 635 631 628 624 621 617 614 612 612 611 610 609 607 604 601 600 598 597 595 594 593 592 591 590 588 588 586 585 583 581 578 576 574 572 570 569 567 566 564
670 670 671 671 672 673 673 674 674 674 675 675 675 675 675 675 674 674 673 673 673 672 671 670 669 668 667 665 664 663 662 660 659 658 656 655 653 652 651 649 647 645 643 641 640 638 637 634 630 627 623 620 617 614 611 610 610 609 609 607 604 601 599 598 596 594 593 591 591 590 589 588 587 586 585 583 582 580 578 576 573 572 570 568 567 566
668 668 668 669 670 671 672 672 673 673 673 673 673 673 673 673 673 673 672 671 670 669 669 668 668 666 664 662 661 660 659 658 656 655 654 653 651 650 648 647 645 643 642 639 638 636 634 632 629 626 623 619 617 613 610 608 608 608 608 606 604 601 598 596 595 594 593 591 589 588 588 587 586 585 584 583 582 581 579 577 575 573 571 570 568 567
665 666 667 668 669 669 670 671 671 671 671 671 671 671 671 671 671 671 670 669 668 668 667 666 666 664 662 660 658 657 656 655 654 653 652 650 649 648 646 644 643 641 640 638 636 633 631 630 628 625 622 619 616 613 609 606 605 606 605 605 604 602 599 595 593 593 592 590 589 588 586 585 584 584 583 583 582 581 579 578 576 574 572 571 569 567
663 664 665 666 667 668 668 669 669 669 669 669 669 669 669 669 669 669 668 667 666 665 665 664 664 663 661 659 656 654 653 652 651 650 649 648 647 645 644 643 641 639 638 637 635 632 629 627 625 623 621 618 616 612 608 606 604 603 603 603 603 601 599 596 593 592 591 589 588 586 585 584 583 583 582 581 581 580 579 578 576 574 573 571 569 568
662 663 664 665 666 666 666 666 667 667 667 667 667 667 667 667 667 667 666 665 664 663 663 663 662 661 659 657 655 653 651 649 648 647 646 645 644 643 642 641 639 638 637 635 633 631 629 626 623 620 618 617 614 611 608 605 603 602 601 601 600 599 598 596 594 593 590 588 587 585 584 583 582 581 580 579 579 578 578 577 575 574 573 571 569 568
661 662 662 663 663 664 664 664 665 665 665 665 665 665 665 665 665 665 664 663 663 662 661 661 660 659 657 655 653 652 650 648 646 644 643 642 641 641 640 638 637 636 634 633 631 630 628 626 623 619 617 614 612 609 607 605 603 600 599 598 598 598 596 595 594 592 590 588 586 584 583 582 582 581 579 578 577 577 576 575 574 573 572 571 569 568
659 660 660 661 661 662 662 662 663 663 663 663 663 663 663 663 663 663 662 661 661 660 659 658 658 657 655 653 652 651 649 647 645 643 641 640 639 638 637 636 635 634 633 631 629 628 626 624 622 619 617 614 610 606 604 603 601 599 598 597 596 596 595 593 592 591 590 588 586 584 582 582 581 579 578 577 576 575 574 574 573 573 571 570 569 567
657 658 658 658 659 659 660 660 660 661 661 661 661 661 661 661 661 661 660 659 658 658 657 657 655 654 653 652 651 650 648 647 644 642 640 639 637 636 635 634 633 631 630 628 627 625 624 622 620 618 616 613 610 605 602 600 599 598 596 595 594 594 593 592 591 590 589 587 585 583 582 581 580 579 577 576 575 574 573 573 572 572 571 569 568 567
655 655 656 657 657 657 658 658 658 658 658 658 659 659 659 659 659 659 658 657 657 656 655 654 653 652 651 649 648 647 646 645 643 641 639 638 636 635 633 632 631 629 627 626 624 623 621 619 618 616 614 612 609 605 601 598 597 595 594 593 592 591 590 589 589 588 588 586 584 583 581 580 579 578 577 576 574 573 572 572 571 570 570 569 568 566
653 653 654 654 655 655 655 655 656 656 656 657 657 657 657 657 657 657 656 655 655 654 653 652 651 650 649 648 646 645 644 643 641 640 638 637 635 634 632 631 629 627 625 623 621 619 618 616 614 613 612 610 608 605 601 598 595 593 592 591 590 589 588 587 587 587 586 585 583 582 580 579 578 577 577 576 574 572 571 570 570 569 568 568 566 565
651 651 652 652 652 653 653 653 654 654 654 654 655 655 655 655 655 654 654 653 653 652 651 650 649 648 647 645 644 643 642 641 640 638 636 635 634 633 632 630 628 627 625 622 619 617 616 613 611 609 607 607 607 605 602 598 595 592 590 588 588 587 586 585 585 584 584 584 583 581 580 578 577 576 575 575 573 572 570 569 569 568 567 566 565 563